site,time,unit,value
Tunnel Bank,10/11/2023 00:00:00,MW,2.3473556
Tunnel Bank,10/11/2023 00:05:00,MW,2.3485663
Tunnel Bank,10/11/2023 00:10:00,MW,2.2883818
Tunnel Bank,10/11/2023 00:15:00,MW,2.347355
Tunnel Bank,10/11/2023 00:20:00,MW,2.3772254
Tunnel Bank,10/11/2023 00:25:00,MW,2.4214492
Tunnel Bank,10/11/2023 00:30:00,MW,2.4263155
Tunnel Bank,10/11/2023 00:35:00,MW,2.4435909
Tunnel Bank,10/11/2023 00:40:00,MW,2.435104
Tunnel Bank,10/11/2023 00:45:00,MW,2.3807878
Tunnel Bank,10/11/2023 00:50:00,MW,2.3094914
Tunnel Bank,10/11/2023 00:55:00,MW,2.359971
Tunnel Bank,10/11/2023 01:00:00,MW,2.3536131
Tunnel Bank,10/11/2023 01:05:00,MW,2.26623
Tunnel Bank,10/11/2023 01:10:00,MW,2.3770278
Tunnel Bank,10/11/2023 01:15:00,MW,2.379955
Tunnel Bank,10/11/2023 01:20:00,MW,2.3593276
Tunnel Bank,10/11/2023 01:25:00,MW,2.3468192
Tunnel Bank,10/11/2023 01:30:00,MW,2.3133287
Tunnel Bank,10/11/2023 01:35:00,MW,2.2560406
Tunnel Bank,10/11/2023 01:40:00,MW,2.2897983
Tunnel Bank,10/11/2023 01:45:00,MW,2.2998512
Tunnel Bank,10/11/2023 01:50:00,MW,2.220521
Tunnel Bank,10/11/2023 01:55:00,MW,2.2440968
Tunnel Bank,10/11/2023 02:00:00,MW,2.3377302
Tunnel Bank,10/11/2023 02:05:00,MW,2.3321114
Tunnel Bank,10/11/2023 02:10:00,MW,2.359512
Tunnel Bank,10/11/2023 02:15:00,MW,2.3820107
Tunnel Bank,10/11/2023 02:20:00,MW,2.4228253
Tunnel Bank,10/11/2023 02:25:00,MW,2.481727
Tunnel Bank,10/11/2023 02:30:00,MW,2.5305953
Tunnel Bank,10/11/2023 02:35:00,MW,2.4890854
Tunnel Bank,10/11/2023 02:40:00,MW,2.4388316
Tunnel Bank,10/11/2023 02:45:00,MW,2.4184744
Tunnel Bank,10/11/2023 02:50:00,MW,2.3751464
Tunnel Bank,10/11/2023 02:55:00,MW,2.4104307
Tunnel Bank,10/11/2023 03:00:00,MW,2.3709242
Tunnel Bank,10/11/2023 03:05:00,MW,2.376797
Tunnel Bank,10/11/2023 03:10:00,MW,2.328293
Tunnel Bank,10/11/2023 03:15:00,MW,2.3575175
Tunnel Bank,10/11/2023 03:20:00,MW,2.3907287
Tunnel Bank,10/11/2023 03:25:00,MW,2.328461
Tunnel Bank,10/11/2023 03:30:00,MW,2.3019786
Tunnel Bank,10/11/2023 03:35:00,MW,2.316919
Tunnel Bank,10/11/2023 03:40:00,MW,2.1861584
Tunnel Bank,10/11/2023 03:45:00,MW,2.3180733
Tunnel Bank,10/11/2023 03:50:00,MW,2.4156718
Tunnel Bank,10/11/2023 03:55:00,MW,2.4244084
Tunnel Bank,10/11/2023 04:00:00,MW,2.4264977
Tunnel Bank,10/11/2023 04:05:00,MW,2.4514153
Tunnel Bank,10/11/2023 04:10:00,MW,2.4883158
Tunnel Bank,10/11/2023 04:15:00,MW,2.4444358
Tunnel Bank,10/11/2023 04:20:00,MW,2.5105665
Tunnel Bank,10/11/2023 04:25:00,MW,2.5020607
Tunnel Bank,10/11/2023 04:30:00,MW,2.50107
Tunnel Bank,10/11/2023 04:35:00,MW,2.410418
Tunnel Bank,10/11/2023 04:40:00,MW,2.3955493
Tunnel Bank,10/11/2023 04:45:00,MW,2.37734
Tunnel Bank,10/11/2023 04:50:00,MW,2.3568058
Tunnel Bank,10/11/2023 04:55:00,MW,2.3753953
Tunnel Bank,10/11/2023 05:00:00,MW,2.3888476
Tunnel Bank,10/11/2023 05:05:00,MW,2.337008
Tunnel Bank,10/11/2023 05:10:00,MW,2.4466407
Tunnel Bank,10/11/2023 05:15:00,MW,2.4782677
Tunnel Bank,10/11/2023 05:20:00,MW,2.4361033
Tunnel Bank,10/11/2023 05:25:00,MW,2.483601
Tunnel Bank,10/11/2023 05:30:00,MW,2.5096707
Tunnel Bank,10/11/2023 05:35:00,MW,2.4598606
Tunnel Bank,10/11/2023 05:40:00,MW,2.5465982
Tunnel Bank,10/11/2023 05:45:00,MW,2.590066
Tunnel Bank,10/11/2023 05:50:00,MW,2.5455706
Tunnel Bank,10/11/2023 05:55:00,MW,2.5559359
Tunnel Bank,10/11/2023 06:00:00,MW,2.5087798
Tunnel Bank,10/11/2023 06:05:00,MW,2.531546
Tunnel Bank,10/11/2023 06:10:00,MW,2.6480508
Tunnel Bank,10/11/2023 06:15:00,MW,2.6913092
Tunnel Bank,10/11/2023 06:20:00,MW,2.7446566
Tunnel Bank,10/11/2023 06:25:00,MW,2.906907
Tunnel Bank,10/11/2023 06:30:00,MW,3.0831923
Tunnel Bank,10/11/2023 06:35:00,MW,3.1408765
Tunnel Bank,10/11/2023 06:40:00,MW,3.0086403
Tunnel Bank,10/11/2023 06:45:00,MW,3.0035045
Tunnel Bank,10/11/2023 06:50:00,MW,3.071374
Tunnel Bank,10/11/2023 06:55:00,MW,3.117369
Tunnel Bank,10/11/2023 07:00:00,MW,2.9157946
Tunnel Bank,10/11/2023 07:05:00,MW,3.0166872
Tunnel Bank,10/11/2023 07:10:00,MW,3.171048
Tunnel Bank,10/11/2023 07:15:00,MW,3.1777039
Tunnel Bank,10/11/2023 07:20:00,MW,3.297752
Tunnel Bank,10/11/2023 07:25:00,MW,3.3400848
Tunnel Bank,10/11/2023 07:30:00,MW,3.329763
Tunnel Bank,10/11/2023 07:35:00,MW,3.3386452
Tunnel Bank,10/11/2023 07:40:00,MW,3.4251387
Tunnel Bank,10/11/2023 07:45:00,MW,3.5074458
Tunnel Bank,10/11/2023 07:50:00,MW,3.559693
Tunnel Bank,10/11/2023 07:55:00,MW,3.6455193
Tunnel Bank,10/11/2023 08:00:00,MW,3.733205
Tunnel Bank,10/11/2023 08:05:00,MW,3.619002
Tunnel Bank,10/11/2023 08:10:00,MW,3.601587
Tunnel Bank,10/11/2023 08:15:00,MW,3.7463248
Tunnel Bank,10/11/2023 08:20:00,MW,3.490849
Tunnel Bank,10/11/2023 08:25:00,MW,3.3608449
Tunnel Bank,10/11/2023 08:30:00,MW,3.3475707
Tunnel Bank,10/11/2023 08:35:00,MW,3.2647643
Tunnel Bank,10/11/2023 08:40:00,MW,3.1981716
Tunnel Bank,10/11/2023 08:45:00,MW,3.065001
Tunnel Bank,10/11/2023 08:50:00,MW,3.0486977
Tunnel Bank,10/11/2023 08:55:00,MW,2.9666865
Tunnel Bank,10/11/2023 09:00:00,MW,2.9619453
Tunnel Bank,10/11/2023 09:05:00,MW,3.012473
Tunnel Bank,10/11/2023 09:10:00,MW,3.0517445
Tunnel Bank,10/11/2023 09:15:00,MW,2.9586313
Tunnel Bank,10/11/2023 09:20:00,MW,3.0928547
Tunnel Bank,10/11/2023 09:25:00,MW,3.0039277
Tunnel Bank,10/11/2023 09:30:00,MW,2.9336445
Tunnel Bank,10/11/2023 09:35:00,MW,3.0692573
Tunnel Bank,10/11/2023 09:40:00,MW,3.0992684
Tunnel Bank,10/11/2023 09:45:00,MW,2.8550954
Tunnel Bank,10/11/2023 09:50:00,MW,2.9088292
Tunnel Bank,10/11/2023 09:55:00,MW,3.087886
Tunnel Bank,10/11/2023 10:00:00,MW,3.1241674
Tunnel Bank,10/11/2023 10:05:00,MW,2.883386
Tunnel Bank,10/11/2023 10:10:00,MW,3.0289059
Tunnel Bank,10/11/2023 10:15:00,MW,2.8233356
Tunnel Bank,10/11/2023 10:20:00,MW,2.927589
Tunnel Bank,10/11/2023 10:25:00,MW,3.072022
Tunnel Bank,10/11/2023 10:30:00,MW,3.1736088
Tunnel Bank,10/11/2023 10:35:00,MW,3.1443892
Tunnel Bank,10/11/2023 10:40:00,MW,2.9728599
Tunnel Bank,10/11/2023 10:45:00,MW,3.0727458
Tunnel Bank,10/11/2023 10:50:00,MW,2.6992633
Tunnel Bank,10/11/2023 10:55:00,MW,2.6135714
Tunnel Bank,10/11/2023 11:00:00,MW,2.878714
Tunnel Bank,10/11/2023 11:05:00,MW,3.1668892
Tunnel Bank,10/11/2023 11:10:00,MW,3.108889
Tunnel Bank,10/11/2023 11:15:00,MW,3.2452443
Tunnel Bank,10/11/2023 11:20:00,MW,3.3118064
Tunnel Bank,10/11/2023 11:25:00,MW,3.1680312
Tunnel Bank,10/11/2023 11:30:00,MW,3.0108266
Tunnel Bank,10/11/2023 11:35:00,MW,3.0377376
Tunnel Bank,10/11/2023 11:40:00,MW,3.0330873
Tunnel Bank,10/11/2023 11:45:00,MW,2.8837614
Tunnel Bank,10/11/2023 11:50:00,MW,2.876959
Tunnel Bank,10/11/2023 11:55:00,MW,2.9063756
Tunnel Bank,10/11/2023 12:00:00,MW,2.9577506
Tunnel Bank,10/11/2023 12:05:00,MW,2.7864223
Tunnel Bank,10/11/2023 12:10:00,MW,2.8259826
Tunnel Bank,10/11/2023 12:15:00,MW,2.716966
Tunnel Bank,10/11/2023 12:20:00,MW,2.8985727
Tunnel Bank,10/11/2023 12:25:00,MW,3.0063784
Tunnel Bank,10/11/2023 12:30:00,MW,3.213001
Tunnel Bank,10/11/2023 12:35:00,MW,3.2075908
Tunnel Bank,10/11/2023 12:40:00,MW,3.2678206
Tunnel Bank,10/11/2023 12:45:00,MW,3.3287346
Tunnel Bank,10/11/2023 12:50:00,MW,3.291512
Tunnel Bank,10/11/2023 12:55:00,MW,3.2508593
Tunnel Bank,10/11/2023 13:00:00,MW,3.0670304
Tunnel Bank,10/11/2023 13:05:00,MW,3.0200756
Tunnel Bank,10/11/2023 13:10:00,MW,2.9493432
Tunnel Bank,10/11/2023 13:15:00,MW,3.0349529
Tunnel Bank,10/11/2023 13:20:00,MW,3.1099107
Tunnel Bank,10/11/2023 13:25:00,MW,3.1141667
Tunnel Bank,10/11/2023 13:30:00,MW,3.1357307
Tunnel Bank,10/11/2023 13:35:00,MW,3.171305
Tunnel Bank,10/11/2023 13:40:00,MW,3.187302
Tunnel Bank,10/11/2023 13:45:00,MW,3.2358801
Tunnel Bank,10/11/2023 13:50:00,MW,3.2756119
Tunnel Bank,10/11/2023 13:55:00,MW,3.2139962
Tunnel Bank,10/11/2023 14:00:00,MW,3.303212
Tunnel Bank,10/11/2023 14:05:00,MW,3.2010024
Tunnel Bank,10/11/2023 14:10:00,MW,3.3039298
Tunnel Bank,10/11/2023 14:15:00,MW,3.312777
Tunnel Bank,10/11/2023 14:20:00,MW,3.2524452
Tunnel Bank,10/11/2023 14:25:00,MW,3.2379973
Tunnel Bank,10/11/2023 14:30:00,MW,3.3232722
Tunnel Bank,10/11/2023 14:35:00,MW,3.4279435
Tunnel Bank,10/11/2023 14:40:00,MW,3.1992042
Tunnel Bank,10/11/2023 14:45:00,MW,3.1204603
Tunnel Bank,10/11/2023 14:50:00,MW,3.1155856
Tunnel Bank,10/11/2023 14:55:00,MW,3.1030498
Tunnel Bank,10/11/2023 15:00:00,MW,3.0785832
Tunnel Bank,10/11/2023 15:05:00,MW,3.0528724
Tunnel Bank,10/11/2023 15:10:00,MW,3.0286136
Tunnel Bank,10/11/2023 15:15:00,MW,3.1724133
Tunnel Bank,10/11/2023 15:20:00,MW,3.3068671
Tunnel Bank,10/11/2023 15:25:00,MW,3.3998115
Tunnel Bank,10/11/2023 15:30:00,MW,3.4468288
Tunnel Bank,10/11/2023 15:35:00,MW,3.2822552
Tunnel Bank,10/11/2023 15:40:00,MW,3.315533
Tunnel Bank,10/11/2023 15:45:00,MW,3.3081925
Tunnel Bank,10/11/2023 15:50:00,MW,3.3736742
Tunnel Bank,10/11/2023 15:55:00,MW,3.3908277
Tunnel Bank,10/11/2023 16:00:00,MW,3.4235947
Tunnel Bank,10/11/2023 16:05:00,MW,3.45614
Tunnel Bank,10/11/2023 16:10:00,MW,3.5415804
Tunnel Bank,10/11/2023 16:15:00,MW,3.420557
Tunnel Bank,10/11/2023 16:20:00,MW,3.3744009
Tunnel Bank,10/11/2023 16:25:00,MW,3.4369323
Tunnel Bank,10/11/2023 16:30:00,MW,3.3086271
Tunnel Bank,10/11/2023 16:35:00,MW,3.1883473
Tunnel Bank,10/11/2023 16:40:00,MW,3.0528898
Tunnel Bank,10/11/2023 16:45:00,MW,2.973823
Tunnel Bank,10/11/2023 16:50:00,MW,2.9655952
Tunnel Bank,10/11/2023 16:55:00,MW,3.0692897
Tunnel Bank,10/11/2023 17:00:00,MW,2.9519155
Tunnel Bank,10/11/2023 17:05:00,MW,3.047137
Tunnel Bank,10/11/2023 17:10:00,MW,3.0459266
Tunnel Bank,10/11/2023 17:15:00,MW,3.0583253
Tunnel Bank,10/11/2023 17:20:00,MW,3.0210335
Tunnel Bank,10/11/2023 17:25:00,MW,3.0646186
Tunnel Bank,10/11/2023 17:30:00,MW,3.004623
Tunnel Bank,10/11/2023 17:35:00,MW,2.9943264
Tunnel Bank,10/11/2023 17:40:00,MW,2.9971879
Tunnel Bank,10/11/2023 17:45:00,MW,2.9564514
Tunnel Bank,10/11/2023 17:50:00,MW,2.891032
Tunnel Bank,10/11/2023 17:55:00,MW,2.8869164
Tunnel Bank,10/11/2023 18:00:00,MW,2.8392828
Tunnel Bank,10/11/2023 18:05:00,MW,2.8574917
Tunnel Bank,10/11/2023 18:10:00,MW,2.818483
Tunnel Bank,10/11/2023 18:15:00,MW,2.8302004
Tunnel Bank,10/11/2023 18:20:00,MW,2.7982411
Tunnel Bank,10/11/2023 18:25:00,MW,2.838081
Tunnel Bank,10/11/2023 18:30:00,MW,2.8422532
Tunnel Bank,10/11/2023 18:35:00,MW,2.9190764
Tunnel Bank,10/11/2023 18:40:00,MW,2.9100037
Tunnel Bank,10/11/2023 18:45:00,MW,2.7695088
Tunnel Bank,10/11/2023 18:50:00,MW,2.817108
Tunnel Bank,10/11/2023 18:55:00,MW,2.8397746
Tunnel Bank,10/11/2023 19:00:00,MW,2.8540323
Tunnel Bank,10/11/2023 19:05:00,MW,2.8610356
Tunnel Bank,10/11/2023 19:10:00,MW,2.8111362
Tunnel Bank,10/11/2023 19:15:00,MW,2.8092778
Tunnel Bank,10/11/2023 19:20:00,MW,2.7076561
Tunnel Bank,10/11/2023 19:25:00,MW,2.7675865
Tunnel Bank,10/11/2023 19:30:00,MW,2.7330093
Tunnel Bank,10/11/2023 19:35:00,MW,2.7111802
Tunnel Bank,10/11/2023 19:40:00,MW,2.674407
Tunnel Bank,10/11/2023 19:45:00,MW,2.6792283
Tunnel Bank,10/11/2023 19:50:00,MW,2.6433065
Tunnel Bank,10/11/2023 19:55:00,MW,2.6308591
Tunnel Bank,10/11/2023 20:00:00,MW,2.645635
Tunnel Bank,10/11/2023 20:05:00,MW,2.6185672
Tunnel Bank,10/11/2023 20:10:00,MW,2.5881588
Tunnel Bank,10/11/2023 20:15:00,MW,2.5709417
Tunnel Bank,10/11/2023 20:20:00,MW,2.5311902
Tunnel Bank,10/11/2023 20:25:00,MW,2.5646498
Tunnel Bank,10/11/2023 20:30:00,MW,2.6636431
Tunnel Bank,10/11/2023 20:35:00,MW,2.6297195
Tunnel Bank,10/11/2023 20:40:00,MW,2.608137
Tunnel Bank,10/11/2023 20:45:00,MW,2.5673203
Tunnel Bank,10/11/2023 20:50:00,MW,2.521262
Tunnel Bank,10/11/2023 20:55:00,MW,2.5177517
Tunnel Bank,10/11/2023 21:00:00,MW,2.5452082
Tunnel Bank,10/11/2023 21:05:00,MW,2.5617642
Tunnel Bank,10/11/2023 21:10:00,MW,2.56319
Tunnel Bank,10/11/2023 21:15:00,MW,2.5175269
Tunnel Bank,10/11/2023 21:20:00,MW,2.5754185
Tunnel Bank,10/11/2023 21:25:00,MW,2.556036
Tunnel Bank,10/11/2023 21:30:00,MW,2.5324113
Tunnel Bank,10/11/2023 21:35:00,MW,2.506452
Tunnel Bank,10/11/2023 21:40:00,MW,2.4842174
Tunnel Bank,10/11/2023 21:45:00,MW,2.4876041
Tunnel Bank,10/11/2023 21:50:00,MW,2.4885733
Tunnel Bank,10/11/2023 21:55:00,MW,2.3564773
Tunnel Bank,10/11/2023 22:00:00,MW,2.4379556
Tunnel Bank,10/11/2023 22:05:00,MW,2.5146263
Tunnel Bank,10/11/2023 22:10:00,MW,2.510339
Tunnel Bank,10/11/2023 22:15:00,MW,2.4717326
Tunnel Bank,10/11/2023 22:20:00,MW,2.4690542
Tunnel Bank,10/11/2023 22:25:00,MW,2.5033884
Tunnel Bank,10/11/2023 22:30:00,MW,2.6060648
Tunnel Bank,10/11/2023 22:35:00,MW,2.5896208
Tunnel Bank,10/11/2023 22:40:00,MW,2.6179266
Tunnel Bank,10/11/2023 22:45:00,MW,2.4660254
Tunnel Bank,10/11/2023 22:50:00,MW,2.4518764
Tunnel Bank,10/11/2023 22:55:00,MW,2.3559134
Tunnel Bank,10/11/2023 23:00:00,MW,2.349582
Tunnel Bank,10/11/2023 23:05:00,MW,2.3899887
Tunnel Bank,10/11/2023 23:10:00,MW,2.362397
Tunnel Bank,10/11/2023 23:15:00,MW,2.3715322
Tunnel Bank,10/11/2023 23:20:00,MW,2.3571732
Tunnel Bank,10/11/2023 23:25:00,MW,2.4195745
Tunnel Bank,10/11/2023 23:30:00,MW,2.3988338
Tunnel Bank,10/11/2023 23:35:00,MW,2.3687594
Tunnel Bank,10/11/2023 23:40:00,MW,2.3099012
Tunnel Bank,10/11/2023 23:45:00,MW,2.314136
Tunnel Bank,10/11/2023 23:50:00,MW,2.2466152
Tunnel Bank,10/11/2023 23:55:00,MW,2.2702098
